Starlink 31112

operational
NORAD ID: 58680 Int'l Des: 2023-211 Owner: SPXS Country: US Constellation: starlink
LEOCIRCULAR

Starlink 31112について

説明を読み込み中...

リアルタイム位置

3D地球を読み込み中...

次回通過

高度履歴

Altitude vs Time

uPlot chart will show altitude changes over time

軌道要素

1 58680U 23211P 25306.10949711 -.00001626 00000-0 -49567-4 0 9996
2 58680 43.0036 85.7186 0001790 268.3306 91.7341 15.27574825104135
Epoch: Nov 2, 2025 • Age: 48 hours

現在のステータス

高度 490.6 km
速度 7.62 km/s
衛星直下点 -30.51°S, 150.75°W
打ち上げ日 Dec 29, 2023
運用期間 1.8 years
タイプ internet

技術仕様

分類 Payload
質量 730.00 kg
乾燥質量 700.00 kg
総質量 730.00 kg
長さ 0.30 m
直径 4.10 m
スパン 29.00 m
形状 Box + pan
製造者 SPXS
バスタイプ Starlink V2M
フェーズステータス In Orbit
所有者/国 SPXS/US

大規模コンステレーション

Loading constellations...